Liberia, Costa Rica

10:18 PM CST on December 15, 2017 (GMT -0600)
Liberia

Weather History for 78774 - November, 2013

Change the Weather History Date:

Saturday, November 30, 2013

  Actual Average Record
Temperature  
Mean Temperature 80 °F -  
Max Temperature 88 °F 87 °F - ()
Min Temperature 71 °F 72 °F - ()
Cooling Degree Days 14    
Growing Degree Days 30 (Base 50)    
Moisture  
Dew Point 68 °F    
Average Humidity 61    
Maximum Humidity 88    
Minimum Humidity 42    
Precipitation  
Precipitation 0.00 in - - ()
Sea Level Pressure  
Sea Level Pressure 29.86 in    
Wind  
Wind Speed 10 mph ()    
Max Wind Speed 21 mph    
Max Gust Speed 32 mph    
Visibility 7.7 miles    
Events      
T = Trace of Precipitation, MM = Missing Value Source: Averaged Metar Reports

Daily Weather History Graph

Daily Weather History Graph

Search for Another Location

Airport or City:

Trip Planner

Search our weather history database for the weather conditions in past years. The results will help you decide how hot, cold, wet, or windy it might be!

Date:

Astronomy

Nov. 30, 2013 Rise Set
Actual Time 5:43 AM CST 5:17 PM CST
Civil Twilight 5:21 AM CST 5:39 PM CST
Nautical Twilight 4:55 AM CST 6:05 PM CST
Astronomical Twilight 4:29 AM CST 6:31 PM CST
Moon 3:17 AM CST (11/30) 3:21 PM CST (11/30)
Length of Visible Light 12h 18m
Length of Day
11h 33m
Waning Crescent, 7% of the Moon is Illuminated
Nov 30
Waning Crescent
Dec 2
New
Dec 9
First Quarter
Dec 17
Full
Dec 25
Last Quarter

Hourly Weather History & Observations

Time (CST) Temp. Heat Index Dew Point Humidity Pressure Visibility Wind Dir Wind Speed Gust Speed Precip Events Conditions
6:00 AM 72 °F - 68 °F 83% 29.90 in 12 mi SSW 11.5 mph - -   Scattered Clouds
6:00 AM 71.6 °F - 68.0 °F 88% 29.87 in 6.2 mi SSW 2.3 mph - N/A   Scattered Clouds
7:00 AM 77.0 °F - 68.0 °F 74% 29.89 in 6.2 mi Calm Calm - N/A   Scattered Clouds
8:00 AM 82.4 °F 86.3 °F 69.8 °F 66% 29.90 in 6.2 mi WNW 4.6 mph - N/A   Scattered Clouds
9:00 AM 86 °F - 69 °F 47% 29.94 in 12 mi NE 10.4 mph - -   Partly Cloudy
9:00 AM 86.0 °F 89.4 °F 68.0 °F 55% 29.91 in 6.2 mi NE 10.4 mph - N/A   Scattered Clouds
10:00 AM 86.0 °F 89.4 °F 68.0 °F 55% 29.89 in 6.2 mi ENE 16.1 mph - N/A   Scattered Clouds
11:00 AM 86.0 °F 88.2 °F 66.2 °F 51% 29.87 in 6.2 mi East 20.7 mph 32.2 mph N/A   Scattered Clouds
12:00 PM 87 °F - 67 °F 42% 29.88 in 12 mi East 20.7 mph - -   Partly Cloudy
12:00 PM 86.0 °F 89.4 °F 68.0 °F 55% 29.84 in 6.2 mi East 20.7 mph 32.2 mph N/A   Scattered Clouds
1:00 PM 87.8 °F 91.4 °F 68.0 °F 52% 29.81 in 6.2 mi East 19.6 mph - N/A   Scattered Clouds
2:00 PM 86.0 °F 89.4 °F 68.0 °F 55% - 6.2 mi ENE 20.7 mph - N/A   Unknown
3:00 PM 84 °F - 70 °F 54% 29.82 in 12 mi ESE 9.2 mph - -   Scattered Clouds
3:00 PM 84.2 °F 88.4 °F 69.8 °F 62% 29.78 in 6.2 mi ESE 9.2 mph - N/A   Partly Cloudy
4:00 PM 86.0 °F 88.2 °F 66.2 °F 51% 29.78 in 6.2 mi ENE 11.5 mph - N/A   Scattered Clouds
5:00 PM 82.4 °F 85.4 °F 68.0 °F 62% 29.80 in 6.2 mi ENE 13.8 mph - N/A   Scattered Clouds
6:00 PM 79 °F - 68 °F 61% 29.85 in 12 mi East 8.1 mph - -   Partly Cloudy
6:00 PM 78.8 °F - 68.0 °F 69% 29.82 in 6.2 mi East 8.1 mph - N/A   Scattered Clouds
7:00 PM 77.0 °F - 69.8 °F 78% 29.85 in 6.2 mi NE 10.4 mph - N/A   Mostly Cloudy
8:00 PM 78.8 °F - 68.0 °F 69% 29.86 in 6.2 mi East 11.5 mph - N/A   Scattered Clouds